{"data":{"norad_id":47851,"intl_designator":"2021-019A","name":"SHIYAN-9 (SY-9)","alt_names":[],"object_type":"PAYLOAD","status":"ACTIVE","operator":null,"country":"PRC","launch_date":"2021-03-11","launch_site_code":"WSC","launch_vehicle":null,"mission":null,"orbit_class":"UNKNOWN","rcs_meters":null,"size_class":null,"mass_kg":null,"dimensions":null,"purposes":[],"wikipedia_slug":null,"has_3d_model":false,"image_url":null,"decayed_at":null,"tle_current":{"epoch":"2026-05-24T18:10:28.144416Z","epoch_age_seconds":99609,"freshness":"FRESH","line1":"1 47851U 21019A   26144.75727019 -.00000250  00000+0  00000+0 0  9999","line2":"2 47851  16.5785 302.7493 0014493  25.6909 333.1870  1.00278141 23890","mean_motion":1.00278141,"eccentricity":0.0014493,"inclination_deg":16.5785,"raan_deg":302.7493,"arg_perigee_deg":25.6909,"mean_anomaly_deg":333.187,"bstar":0,"rev_number":2389,"period_min":1436.0058788884,"perigee_km":35723.706473997,"apogee_km":35845.920001557,"semimajor_km":42162.950237777,"source":"CELESTRAK","updated_at":"2026-05-25T13:37:56.595899Z"}}}